Time,TemperatureF,DewpointF,PressureIn,WindDirection,WindDirectionDegrees,WindSpeedMPH,WindSpeedGustMPH,Humidity,HourlyPrecipIn,Conditions,Clouds,dailyrainin,SolarRadiationWatts/m^2,SoftwareType,DateUTC
2017-01-22 00:00:00,57.3,46.0,29.35,SSW,200,0.0,0.0,66,0.00,,---,0.00,0.00,VWS V15.00,2017-01-22 06:00:00,
2017-01-22 00:05:00,56.6,46.2,29.35,SW,223,0.0,0.0,68,0.00,,---,0.00,0.00,VWS V15.00,2017-01-22 06:05:00,
2017-01-22 00:10:00,56.3,46.3,29.34,SW,216,0.0,0.0,69,0.00,,---,0.00,0.00,VWS V15.00,2017-01-22 06:10:00,
2017-01-22 00:15:00,56.3,45.9,29.35,SSW,205,0.0,0.0,68,0.00,,---,0.00,0.00,VWS V15.00,2017-01-22 06:15:00,
2017-01-22 00:20:00,56.4,45.6,29.35,SSW,200,0.0,0.0,67,0.00,,---,0.00,0.00,VWS V15.00,2017-01-22 06:20:00,
2017-01-22 00:25:00,56.2,45.8,29.34,SSW,203,0.0,0.0,68,0.00,,---,0.00,0.00,VWS V15.00,2017-01-22 06:25:00,
2017-01-22 00:30:00,55.9,46.3,29.34,SSW,207,0.0,0.0,70,0.00,,---,0.00,0.00,VWS V15.00,2017-01-22 06:30:00,
2017-01-22 00:35:00,55.8,46.2,29.34,SSW,192,0.0,0.0,70,0.00,,---,0.00,0.00,VWS V15.00,2017-01-22 06:35:00,
2017-01-22 00:40:00,55.7,45.7,29.34,SW,217,0.0,0.0,69,0.00,,---,0.00,0.00,VWS V15.00,2017-01-22 06:40:00,
2017-01-22 00:45:00,55.6,46.0,29.34,SSE,162,0.0,0.0,70,0.00,,---,0.00,0.00,VWS V15.00,2017-01-22 06:45:00,
2017-01-22 00:50:00,55.5,45.9,29.34,South,186,0.0,0.0,70,0.00,,---,0.00,0.00,VWS V15.00,2017-01-22 06:50:00,
2017-01-22 00:55:00,55.5,45.5,29.34,SSW,193,0.0,0.0,69,0.00,,---,0.00,0.00,VWS V15.00,2017-01-22 06:55:00,
2017-01-22 01:00:00,55.6,45.6,29.34,WSW,246,0.0,0.0,69,0.00,,---,0.00,0.00,VWS V15.00,2017-01-22 07:00:00,
2017-01-22 01:05:00,55.5,45.5,29.34,SSW,194,0.0,0.0,69,0.00,,---,0.00,0.00,VWS V15.00,2017-01-22 07:05:00,
2017-01-22 01:10:00,55.5,45.5,29.34,SSW,210,0.0,0.0,69,0.00,,---,0.00,0.00,VWS V15.00,2017-01-22 07:10:00,
2017-01-22 01:15:00,55.4,45.8,29.33,SSW,204,1.0,1.0,70,0.00,,---,0.00,0.00,VWS V15.00,2017-01-22 07:15:00,
2017-01-22 01:20:00,55.4,45.4,29.33,SSW,207,0.0,0.0,69,0.00,,---,0.00,0.00,VWS V15.00,2017-01-22 07:20:00,
2017-01-22 01:25:00,55.5,45.1,29.33,SW,219,0.0,0.0,68,0.00,,---,0.00,0.00,VWS V15.00,2017-01-22 07:25:00,
2017-01-22 01:30:00,55.6,45.2,29.33,SSW,213,0.0,1.0,68,0.00,,---,0.00,0.00,VWS V15.00,2017-01-22 07:30:00,
2017-01-22 01:35:00,55.6,45.2,29.33,SSW,209,0.0,0.0,68,0.00,,---,0.00,0.00,VWS V15.00,2017-01-22 07:35:00,
2017-01-22 01:40:00,55.5,45.1,29.33,SSW,211,0.0,0.0,68,0.00,,---,0.00,0.00,VWS V15.00,2017-01-22 07:40:00,
2017-01-22 01:45:00,55.4,45.0,29.33,SSW,195,0.0,0.0,68,0.00,,---,0.00,0.00,VWS V15.00,2017-01-22 07:45:00,
2017-01-22 01:50:00,55.3,44.5,29.33,SSW,211,0.0,0.0,67,0.00,,---,0.00,0.00,VWS V15.00,2017-01-22 07:50:00,
2017-01-22 01:55:00,55.2,44.8,29.33,SSW,211,0.0,0.0,68,0.00,,---,0.00,0.00,VWS V15.00,2017-01-22 07:55:00,
2017-01-22 02:00:00,55.1,44.3,29.33,SSW,211,0.0,0.0,67,0.00,,---,0.00,0.00,VWS V15.00,2017-01-22 08:00:00,
2017-01-22 02:05:00,55.0,44.3,29.33,West,279,0.0,0.0,67,0.00,,---,0.00,0.00,VWS V15.00,2017-01-22 08:05:00,
2017-01-22 02:10:00,54.7,44.7,29.33,West,279,0.0,0.0,69,0.00,,---,0.00,0.00,VWS V15.00,2017-01-22 08:10:00,
2017-01-22 02:15:00,54.5,44.2,29.33,NW,313,0.0,0.0,68,0.00,,---,0.00,0.00,VWS V15.00,2017-01-22 08:15:00,
2017-01-22 02:20:00,54.4,44.1,29.33,NW,313,0.0,0.0,68,0.00,,---,0.00,0.00,VWS V15.00,2017-01-22 08:20:00,
2017-01-22 02:25:00,54.1,43.8,29.33,NW,313,0.0,0.0,68,0.00,,---,0.00,0.00,VWS V15.00,2017-01-22 08:25:00,
2017-01-22 02:30:00,53.8,43.5,29.33,NW,313,0.0,0.0,68,0.00,,---,0.00,0.00,VWS V15.00,2017-01-22 08:30:00,
2017-01-22 02:35:00,53.5,43.6,29.34,NW,313,0.0,0.0,69,0.00,,---,0.00,0.00,VWS V15.00,2017-01-22 08:35:00,
2017-01-22 02:40:00,53.1,43.2,29.34,NW,313,0.0,0.0,69,0.00,,---,0.00,0.00,VWS V15.00,2017-01-22 08:40:00,
2017-01-22 02:45:00,52.7,42.8,29.34,NW,313,0.0,0.0,69,0.00,,---,0.00,0.00,VWS V15.00,2017-01-22 08:45:00,
2017-01-22 02:50:00,52.3,42.8,29.34,NW,313,0.0,0.0,70,0.00,,---,0.00,0.00,VWS V15.00,2017-01-22 08:50:00,
2017-01-22 02:55:00,52.2,42.7,29.34,NW,313,0.0,0.0,70,0.00,,---,0.00,0.00,VWS V15.00,2017-01-22 08:55:00,
2017-01-22 03:00:00,52.0,42.5,29.34,NW,313,0.0,0.0,70,0.00,,---,0.00,0.00,VWS V15.00,2017-01-22 09:00:00,
2017-01-22 03:05:00,51.8,42.3,29.34,NW,313,0.0,0.0,70,0.00,,---,0.00,0.00,VWS V15.00,2017-01-22 09:05:00,
2017-01-22 03:10:00,51.5,42.4,29.34,NW,313,0.0,0.0,71,0.00,,---,0.00,0.00,VWS V15.00,2017-01-22 09:10:00,
2017-01-22 03:15:00,51.3,42.2,29.34,NW,313,0.0,0.0,71,0.00,,---,0.00,0.00,VWS V15.00,2017-01-22 09:15:00,
2017-01-22 03:20:00,51.2,41.8,29.35,NW,313,0.0,0.0,70,0.00,,---,0.00,0.00,VWS V15.00,2017-01-22 09:20:00,
2017-01-22 03:25:00,51.2,41.8,29.34,NW,313,0.0,0.0,70,0.00,,---,0.00,0.00,VWS V15.00,2017-01-22 09:25:00,
2017-01-22 03:30:00,51.2,41.8,29.34,NW,313,0.0,0.0,70,0.00,,---,0.00,0.00,VWS V15.00,2017-01-22 09:30:00,
2017-01-22 03:35:00,51.1,41.3,29.35,NW,313,0.0,0.0,69,0.00,,---,0.00,0.00,VWS V15.00,2017-01-22 09:35:00,
2017-01-22 03:40:00,50.9,41.1,29.35,NW,313,0.0,0.0,69,0.00,,---,0.00,0.00,VWS V15.00,2017-01-22 09:40:00,
2017-01-22 03:45:00,50.9,41.1,29.35,NW,313,0.0,0.0,69,0.00,,---,0.00,0.00,VWS V15.00,2017-01-22 09:45:00,
2017-01-22 03:50:00,50.7,40.9,29.35,NW,313,0.0,0.0,69,0.00,,---,0.00,0.00,VWS V15.00,2017-01-22 09:50:00,
2017-01-22 03:55:00,50.6,40.8,29.35,NW,313,0.0,0.0,69,0.00,,---,0.00,0.00,VWS V15.00,2017-01-22 09:55:00,
2017-01-22 04:00:00,50.4,41.0,29.35,NW,313,0.0,0.0,70,0.00,,---,0.00,0.00,VWS V15.00,2017-01-22 10:00:00,
2017-01-22 04:05:00,50.1,40.7,29.35,NW,313,0.0,0.0,70,0.00,,---,0.00,0.00,VWS V15.00,2017-01-22 10:05:00,
2017-01-22 04:10:00,50.0,41.0,29.35,NW,313,0.0,0.0,71,0.00,,---,0.00,0.00,VWS V15.00,2017-01-22 10:10:00,
2017-01-22 04:15:00,50.0,40.6,29.35,NW,313,0.0,0.0,70,0.00,,---,0.00,0.00,VWS V15.00,2017-01-22 10:15:00,
2017-01-22 04:20:00,50.3,40.5,29.34,NW,313,0.0,0.0,69,0.00,,---,0.00,0.00,VWS V15.00,2017-01-22 10:20:00,
2017-01-22 04:25:00,50.6,40.1,29.34,WNW,287,0.0,0.0,67,0.00,,---,0.00,0.00,VWS V15.00,2017-01-22 10:25:00,
2017-01-22 04:30:00,50.7,39.8,29.34,WNW,287,0.0,0.0,66,0.00,,---,0.00,0.00,VWS V15.00,2017-01-22 10:30:00,
2017-01-22 04:35:00,50.8,39.9,29.34,WNW,287,0.0,0.0,66,0.00,,---,0.00,0.00,VWS V15.00,2017-01-22 10:35:00,
2017-01-22 04:40:00,50.6,39.7,29.34,WNW,286,0.0,0.0,66,0.00,,---,0.00,0.00,VWS V15.00,2017-01-22 10:40:00,
2017-01-22 04:45:00,50.5,39.6,29.34,WNW,284,0.0,0.0,66,0.00,,---,0.00,0.00,VWS V15.00,2017-01-22 10:45:00,
2017-01-22 04:50:00,50.4,38.3,29.34,WNW,284,0.0,0.0,63,0.00,,---,0.00,0.00,VWS V15.00,2017-01-22 10:50:00,
2017-01-22 04:55:00,50.4,37.9,29.34,WNW,284,0.0,0.0,62,0.00,,---,0.00,0.00,VWS V15.00,2017-01-22 10:55:00,
2017-01-22 05:00:00,50.3,37.8,29.34,WNW,284,0.0,0.0,62,0.00,,---,0.00,0.00,VWS V15.00,2017-01-22 11:00:00,
2017-01-22 05:05:00,50.2,37.3,29.35,WNW,284,0.0,0.0,61,0.00,,---,0.00,0.00,VWS V15.00,2017-01-22 11:05:00,
2017-01-22 05:10:00,50.1,37.6,29.35,WNW,284,0.0,0.0,62,0.00,,---,0.00,0.00,VWS V15.00,2017-01-22 11:10:00,
2017-01-22 05:15:00,49.8,37.3,29.35,WNW,284,0.0,0.0,62,0.00,,---,0.00,0.00,VWS V15.00,2017-01-22 11:15:00,
2017-01-22 05:20:00,49.6,37.5,29.35,WNW,284,0.0,0.0,63,0.00,,---,0.00,0.00,VWS V15.00,2017-01-22 11:20:00,
2017-01-22 05:25:00,49.4,37.3,29.35,WNW,284,0.0,0.0,63,0.00,,---,0.00,0.00,VWS V15.00,2017-01-22 11:25:00,
2017-01-22 05:30:00,49.2,36.8,29.35,NW,311,0.0,0.0,62,0.00,,---,0.00,0.00,VWS V15.00,2017-01-22 11:30:00,
2017-01-22 05:35:00,49.3,36.8,29.36,West,267,0.0,0.0,62,0.00,,---,0.00,0.00,VWS V15.00,2017-01-22 11:35:00,
2017-01-22 05:40:00,49.3,36.8,29.36,WNW,292,0.0,0.0,62,0.00,,---,0.00,0.00,VWS V15.00,2017-01-22 11:40:00,
2017-01-22 05:45:00,49.4,36.9,29.36,West,270,0.0,0.0,62,0.00,,---,0.00,0.00,VWS V15.00,2017-01-22 11:45:00,
2017-01-22 05:50:00,49.3,36.4,29.37,West,271,0.0,0.0,61,0.00,,---,0.00,0.00,VWS V15.00,2017-01-22 11:50:00,
2017-01-22 05:55:00,49.3,36.4,29.37,NW,315,0.0,0.0,61,0.00,,---,0.00,0.00,VWS V15.00,2017-01-22 11:55:00,
2017-01-22 06:00:00,49.2,36.8,29.37,WNW,284,0.0,0.0,62,0.00,,---,0.00,0.00,VWS V15.00,2017-01-22 12:00:00,
2017-01-22 06:05:00,49.1,36.7,29.37,ENE,76,0.0,0.0,62,0.00,,---,0.00,0.00,VWS V15.00,2017-01-22 12:05:00,
2017-01-22 06:10:00,48.9,36.5,29.37,WNW,296,0.0,0.0,62,0.00,,---,0.00,0.00,VWS V15.00,2017-01-22 12:10:00,
2017-01-22 06:15:00,48.6,36.6,29.38,NNW,341,0.0,0.0,63,0.00,,---,0.00,0.00,VWS V15.00,2017-01-22 12:15:00,
2017-01-22 06:20:00,48.4,36.4,29.38,WNW,300,0.0,0.0,63,0.00,,---,0.00,0.00,VWS V15.00,2017-01-22 12:20:00,
2017-01-22 06:25:00,48.2,36.6,29.38,WNW,293,0.0,0.0,64,0.00,,---,0.00,0.00,VWS V15.00,2017-01-22 12:25:00,
2017-01-22 06:30:00,48.1,36.9,29.39,WNW,294,0.0,0.0,65,0.00,,---,0.00,0.00,VWS V15.00,2017-01-22 12:30:00,
2017-01-22 06:35:00,48.1,36.9,29.39,North,355,0.0,0.0,65,0.00,,---,0.00,0.00,VWS V15.00,2017-01-22 12:35:00,
2017-01-22 06:39:00,48.0,36.8,29.40,West,269,0.0,0.0,65,0.00,,---,0.00,0.00,VWS V15.00,2017-01-22 12:39:00,
2017-01-22 06:44:00,47.8,37.0,29.40,WNW,292,0.0,0.0,66,0.00,,---,0.00,0.00,VWS V15.00,2017-01-22 12:44:00,
2017-01-22 06:49:00,47.6,36.8,29.40,NW,326,0.0,0.0,66,0.00,,---,0.00,0.00,VWS V15.00,2017-01-22 12:49:00,
2017-01-22 06:54:00,47.4,37.0,29.40,NW,304,0.0,0.0,67,0.00,,---,0.00,0.00,VWS V15.00,2017-01-22 12:54:00,
2017-01-22 06:59:00,47.4,37.4,29.40,WNW,287,0.0,0.0,68,0.00,,---,0.00,0.00,VWS V15.00,2017-01-22 12:59:00,
2017-01-22 07:04:00,47.3,37.3,29.40,WNW,295,0.0,0.0,68,0.00,,---,0.00,0.00,VWS V15.00,2017-01-22 13:04:00,
2017-01-22 07:09:00,47.3,37.7,29.40,NW,321,0.0,0.0,69,0.00,,---,0.00,0.00,VWS V15.00,2017-01-22 13:09:00,
2017-01-22 07:14:00,47.2,37.6,29.41,NW,310,0.0,0.0,69,0.00,,---,0.00,0.00,VWS V15.00,2017-01-22 13:14:00,
2017-01-22 07:19:00,47.3,38.0,29.41,NW,310,0.0,1.0,70,0.00,,---,0.00,0.00,VWS V15.00,2017-01-22 13:19:00,
2017-01-22 07:24:00,47.4,37.8,29.42,North,355,0.0,0.0,69,0.00,,---,0.00,0.00,VWS V15.00,2017-01-22 13:24:00,
2017-01-22 07:29:00,47.6,38.3,29.42,NNW,346,0.0,0.0,70,0.00,,---,0.00,5.00,VWS V15.00,2017-01-22 13:29:00,
2017-01-22 07:34:00,47.7,38.4,29.42,NW,319,0.0,0.0,70,0.00,,---,0.00,9.00,VWS V15.00,2017-01-22 13:34:00,
2017-01-22 07:39:00,47.8,38.5,29.43,North,351,0.0,0.0,70,0.00,,---,0.00,16.00,VWS V15.00,2017-01-22 13:39:00,
2017-01-22 07:44:00,47.9,39.0,29.43,NW,315,0.0,0.0,71,0.00,,---,0.00,18.00,VWS V15.00,2017-01-22 13:44:00,
2017-01-22 07:49:00,48.1,39.5,29.43,NNW,342,0.0,0.0,72,0.00,,---,0.00,26.00,VWS V15.00,2017-01-22 13:49:00,
2017-01-22 07:54:00,48.4,40.2,29.44,North,355,0.0,1.0,73,0.00,,---,0.00,16.00,VWS V15.00,2017-01-22 13:54:00,
2017-01-22 07:59:00,48.6,40.7,29.44,North,355,0.0,1.0,74,0.00,,---,0.00,19.00,VWS V15.00,2017-01-22 13:59:00,
2017-01-22 08:04:00,48.7,41.1,29.45,NW,310,0.0,1.0,75,0.00,,---,0.00,21.00,VWS V15.00,2017-01-22 14:04:00,
2017-01-22 08:09:00,48.7,41.1,29.45,NNW,330,0.0,0.0,75,0.00,,---,0.00,32.00,VWS V15.00,2017-01-22 14:09:00,
2017-01-22 08:14:00,48.7,41.5,29.45,NW,323,0.0,0.0,76,0.00,,---,0.00,23.00,VWS V15.00,2017-01-22 14:14:00,
2017-01-22 08:19:00,48.7,41.8,29.46,NNW,341,0.0,3.0,77,0.00,,---,0.00,26.00,VWS V15.00,2017-01-22 14:19:00,
2017-01-22 08:24:00,48.8,42.6,29.46,NNW,333,0.0,0.0,79,0.00,,---,0.00,54.00,VWS V15.00,2017-01-22 14:24:00,
2017-01-22 08:29:00,49.0,43.1,29.46,NW,319,0.0,0.0,80,0.00,,---,0.00,137.00,VWS V15.00,2017-01-22 14:29:00,
2017-01-22 08:34:00,49.5,43.9,29.47,NNW,331,0.0,2.0,81,0.00,,---,0.00,153.00,VWS V15.00,2017-01-22 14:34:00,
2017-01-22 08:39:00,50.0,44.4,29.47,NNW,338,2.0,2.0,81,0.00,,---,0.00,174.00,VWS V15.00,2017-01-22 14:39:00,
2017-01-22 08:44:00,50.5,44.9,29.47,WNW,292,0.0,0.0,81,0.00,,---,0.00,200.00,VWS V15.00,2017-01-22 14:44:00,
2017-01-22 08:49:00,51.0,45.1,29.47,NNW,336,0.0,0.0,80,0.00,,---,0.00,202.00,VWS V15.00,2017-01-22 14:49:00,
2017-01-22 08:54:00,51.4,45.8,29.47,NW,322,0.0,0.0,81,0.00,,---,0.00,218.00,VWS V15.00,2017-01-22 14:54:00,
2017-01-22 08:59:00,51.9,46.3,29.48,NNW,328,0.0,1.0,81,0.00,,---,0.00,227.00,VWS V15.00,2017-01-22 14:59:00,
2017-01-22 09:04:00,52.3,46.3,29.48,NNW,327,0.0,0.0,80,0.00,,---,0.00,244.00,VWS V15.00,2017-01-22 15:04:00,
2017-01-22 09:09:00,52.8,46.8,29.48,NNW,343,4.0,11.0,80,0.00,,---,0.00,294.00,VWS V15.00,2017-01-22 15:09:00,
2017-01-22 09:14:00,53.1,47.1,29.48,NW,305,0.0,6.0,80,0.00,,---,0.00,83.00,VWS V15.00,2017-01-22 15:14:00,
2017-01-22 09:19:00,53.4,47.4,29.49,North,9,0.0,6.0,80,0.00,,---,0.00,297.00,VWS V15.00,2017-01-22 15:19:00,
2017-01-22 09:24:00,53.9,47.5,29.49,NW,309,0.0,3.0,79,0.00,,---,0.00,311.00,VWS V15.00,2017-01-22 15:24:00,
2017-01-22 09:29:00,54.3,47.6,29.50,NNW,340,0.0,0.0,78,0.00,,---,0.00,316.00,VWS V15.00,2017-01-22 15:29:00,
2017-01-22 09:34:00,54.7,47.6,29.50,NNW,336,16.0,16.0,77,0.00,,---,0.00,348.00,VWS V15.00,2017-01-22 15:34:00,
2017-01-22 09:39:00,54.9,47.8,29.50,NNW,336,6.0,22.0,77,0.00,,---,0.00,418.00,VWS V15.00,2017-01-22 15:39:00,
2017-01-22 09:44:00,55.1,47.7,29.51,NW,306,7.0,8.0,76,0.00,,---,0.00,197.00,VWS V15.00,2017-01-22 15:44:00,
2017-01-22 09:49:00,55.0,47.6,29.51,NW,308,0.0,8.0,76,0.00,,---,0.00,100.00,VWS V15.00,2017-01-22 15:49:00,
2017-01-22 09:54:00,54.8,47.7,29.51,NNW,348,0.0,6.0,77,0.00,,---,0.00,116.00,VWS V15.00,2017-01-22 15:54:00,
2017-01-22 09:59:00,54.7,47.6,29.52,NW,326,1.0,12.0,77,0.00,,---,0.00,76.00,VWS V15.00,2017-01-22 15:59:00,
2017-01-22 10:04:00,54.5,47.5,29.53,NNW,346,9.0,11.0,77,0.00,,---,0.00,63.00,VWS V15.00,2017-01-22 16:04:00,
2017-01-22 10:09:00,54.2,47.5,29.53,NNW,340,8.0,20.0,78,0.00,,---,0.00,47.00,VWS V15.00,2017-01-22 16:09:00,
2017-01-22 10:14:00,53.9,47.2,29.54,NW,321,0.0,23.0,78,0.00,,---,0.00,60.00,VWS V15.00,2017-01-22 16:14:00,
2017-01-22 10:19:00,53.9,47.5,29.55,NNW,337,0.0,0.0,79,0.00,,---,0.00,69.00,VWS V15.00,2017-01-22 16:19:00,
2017-01-22 10:24:00,54.0,47.3,29.55,NNE,24,3.0,6.0,78,0.00,,---,0.00,42.00,VWS V15.00,2017-01-22 16:24:00,
2017-01-22 10:29:00,53.9,47.5,29.56,WNW,296,0.0,0.0,79,0.00,,---,0.00,46.00,VWS V15.00,2017-01-22 16:29:00,
2017-01-22 10:34:00,53.9,47.5,29.56,NNW,328,9.0,13.0,79,0.00,,---,0.00,37.00,VWS V15.00,2017-01-22 16:34:00,
2017-01-22 10:39:00,53.9,47.5,29.57,NW,309,1.0,1.0,79,0.00,,---,0.00,35.00,VWS V15.00,2017-01-22 16:39:00,
2017-01-22 10:44:00,53.9,47.5,29.58,North,355,1.0,1.0,79,0.00,,---,0.00,44.00,VWS V15.00,2017-01-22 16:44:00,
2017-01-22 10:49:00,53.9,47.5,29.58,NNW,344,2.0,2.0,79,0.00,,---,0.00,40.00,VWS V15.00,2017-01-22 16:49:00,
2017-01-22 10:54:00,53.8,47.5,29.58,NNW,346,0.0,3.0,79,0.00,,---,0.00,62.00,VWS V15.00,2017-01-22 16:54:00,
2017-01-22 10:59:00,53.7,47.3,29.59,NNW,347,1.0,1.0,79,0.00,,---,0.00,47.00,VWS V15.00,2017-01-22 16:59:00,
2017-01-22 11:04:00,53.8,47.5,29.59,NW,315,2.0,2.0,79,0.00,,---,0.00,62.00,VWS V15.00,2017-01-22 17:04:00,
2017-01-22 11:09:00,53.9,47.2,29.59,North,360,0.0,5.0,78,0.00,,---,0.00,72.00,VWS V15.00,2017-01-22 17:09:00,
2017-01-22 11:14:00,54.2,47.2,29.59,NW,325,0.0,7.0,77,0.00,,---,0.00,188.00,VWS V15.00,2017-01-22 17:14:00,
2017-01-22 11:19:00,54.6,47.5,29.59,North,360,0.0,0.0,77,0.00,,---,0.00,120.00,VWS V15.00,2017-01-22 17:19:00,
2017-01-22 11:24:00,55.0,47.2,29.59,NW,314,0.0,0.0,75,0.00,,---,0.00,111.00,VWS V15.00,2017-01-22 17:24:00,
2017-01-22 11:29:00,55.2,47.1,29.60,NNW,337,0.0,9.0,74,0.00,,---,0.00,111.00,VWS V15.00,2017-01-22 17:29:00,
2017-01-22 11:34:00,55.3,47.2,29.60,West,263,7.0,8.0,74,0.00,,---,0.00,90.00,VWS V15.00,2017-01-22 17:34:00,
2017-01-22 11:39:00,55.4,47.3,29.60,North,355,11.0,11.0,74,0.00,,---,0.00,100.00,VWS V15.00,2017-01-22 17:39:00,
2017-01-22 11:44:00,55.4,47.3,29.60,WNW,300,5.0,5.0,74,0.00,,---,0.00,84.00,VWS V15.00,2017-01-22 17:44:00,
2017-01-22 11:49:00,55.5,47.4,29.60,NW,315,3.0,7.0,74,0.00,,---,0.00,100.00,VWS V15.00,2017-01-22 17:49:00,
2017-01-22 11:54:00,55.8,47.3,29.60,NNW,333,0.0,0.0,73,0.00,,---,0.00,116.00,VWS V15.00,2017-01-22 17:54:00,
2017-01-22 11:59:00,55.9,47.4,29.61,North,355,6.0,6.0,73,0.00,,---,0.00,100.00,VWS V15.00,2017-01-22 17:59:00,
2017-01-22 12:04:00,56.2,47.7,29.61,North,351,0.0,5.0,73,0.00,,---,0.00,109.00,VWS V15.00,2017-01-22 18:04:00,
2017-01-22 12:09:00,56.4,47.5,29.61,NNW,347,11.0,11.0,72,0.00,,---,0.00,130.00,VWS V15.00,2017-01-22 18:09:00,
2017-01-22 12:14:00,56.6,47.3,29.62,NW,321,13.0,13.0,71,0.00,,---,0.00,139.00,VWS V15.00,2017-01-22 18:14:00,
2017-01-22 12:19:00,56.8,47.1,29.62,NW,325,2.0,4.0,70,0.00,,---,0.00,155.00,VWS V15.00,2017-01-22 18:19:00,
2017-01-22 12:24:00,56.9,47.2,29.62,North,349,0.0,4.0,70,0.00,,---,0.00,116.00,VWS V15.00,2017-01-22 18:24:00,
2017-01-22 12:29:00,56.9,47.2,29.63,NW,321,6.0,6.0,70,0.00,,---,0.00,77.00,VWS V15.00,2017-01-22 18:29:00,
2017-01-22 12:34:00,56.9,47.2,29.63,WNW,294,4.0,4.0,70,0.00,,---,0.00,130.00,VWS V15.00,2017-01-22 18:34:00,
2017-01-22 12:39:00,56.4,47.5,29.63,NNW,341,1.0,9.0,72,0.00,,---,0.00,118.00,VWS V15.00,2017-01-22 18:39:00,
2017-01-22 12:44:00,56.0,47.5,29.63,NNE,16,2.0,2.0,73,0.00,,---,0.00,167.00,VWS V15.00,2017-01-22 18:44:00,
2017-01-22 12:49:00,55.9,47.4,29.63,NNW,333,13.0,13.0,73,0.00,,---,0.00,209.00,VWS V15.00,2017-01-22 18:49:00,
2017-01-22 12:54:00,55.9,47.0,29.63,NNW,331,1.0,7.0,72,0.00,,---,0.00,253.00,VWS V15.00,2017-01-22 18:54:00,
2017-01-22 12:59:00,56.5,47.2,29.63,NNW,347,2.0,12.0,71,0.00,,---,0.00,745.00,VWS V15.00,2017-01-22 18:59:00,
2017-01-22 13:04:00,57.0,47.3,29.63,NW,323,25.0,25.0,70,0.00,,---,0.00,271.00,VWS V15.00,2017-01-22 19:04:00,
2017-01-22 13:09:00,57.3,47.2,29.62,NW,319,21.0,21.0,69,0.00,,---,0.00,302.00,VWS V15.00,2017-01-22 19:09:00,
2017-01-22 13:14:00,57.7,46.8,29.62,NNW,340,10.0,13.0,67,0.00,,---,0.00,255.00,VWS V15.00,2017-01-22 19:14:00,
2017-01-22 13:19:00,58.3,46.6,29.63,NNW,339,0.0,15.0,65,0.00,,---,0.00,670.00,VWS V15.00,2017-01-22 19:19:00,
2017-01-22 13:24:00,58.8,46.7,29.63,NW,314,5.0,11.0,64,0.00,,---,0.00,628.00,VWS V15.00,2017-01-22 19:24:00,
2017-01-22 13:29:00,59.0,46.0,29.63,NNW,332,1.0,18.0,62,0.00,,---,0.00,612.00,VWS V15.00,2017-01-22 19:29:00,
2017-01-22 13:34:00,59.3,45.4,29.63,North,360,17.0,26.0,60,0.00,,---,0.00,613.00,VWS V15.00,2017-01-22 19:34:00,
2017-01-22 13:39:00,59.9,45.1,29.64,North,355,8.0,10.0,58,0.00,,---,0.00,578.00,VWS V15.00,2017-01-22 19:39:00,
2017-01-22 13:44:00,60.5,44.3,29.63,NNW,340,12.0,20.0,55,0.00,,---,0.00,592.00,VWS V15.00,2017-01-22 19:44:00,
2017-01-22 13:49:00,60.5,43.8,29.64,NNW,336,22.0,28.0,54,0.00,,---,0.00,601.00,VWS V15.00,2017-01-22 19:49:00,
2017-01-22 13:54:00,60.6,42.4,29.64,North,5,8.0,22.0,51,0.00,,---,0.00,584.00,VWS V15.00,2017-01-22 19:54:00,
2017-01-22 13:59:00,61.1,42.8,29.64,NNW,340,3.0,15.0,51,0.00,,---,0.00,578.00,VWS V15.00,2017-01-22 19:59:00,
2017-01-22 14:04:00,60.9,42.7,29.64,NNW,336,18.0,18.0,51,0.00,,---,0.00,582.00,VWS V15.00,2017-01-22 20:04:00,
2017-01-22 14:09:00,61.1,42.8,29.64,NNW,331,14.0,15.0,51,0.00,,---,0.00,555.00,VWS V15.00,2017-01-22 20:09:00,
2017-01-22 14:14:00,61.5,42.2,29.64,NNW,328,3.0,12.0,49,0.00,,---,0.00,554.00,VWS V15.00,2017-01-22 20:14:00,
2017-01-22 14:19:00,61.8,41.4,29.64,NW,317,0.0,12.0,47,0.00,,---,0.00,527.00,VWS V15.00,2017-01-22 20:19:00,
2017-01-22 14:24:00,62.1,40.5,29.65,North,355,22.0,22.0,45,0.00,,---,0.00,520.00,VWS V15.00,2017-01-22 20:24:00,
2017-01-22 14:29:00,61.8,39.7,29.65,NNW,340,12.0,22.0,44,0.00,,---,0.00,510.00,VWS V15.00,2017-01-22 20:29:00,
2017-01-22 14:34:00,61.9,40.3,29.66,NW,311,4.0,10.0,45,0.00,,---,0.00,520.00,VWS V15.00,2017-01-22 20:34:00,
2017-01-22 14:39:00,61.8,40.8,29.66,NNW,330,6.0,15.0,46,0.00,,---,0.00,492.00,VWS V15.00,2017-01-22 20:39:00,
2017-01-22 14:44:00,61.6,40.6,29.66,NNW,331,5.0,14.0,46,0.00,,---,0.00,480.00,VWS V15.00,2017-01-22 20:44:00,
2017-01-22 14:49:00,62.0,40.4,29.66,NNW,329,21.0,26.0,45,0.00,,---,0.00,475.00,VWS V15.00,2017-01-22 20:49:00,
2017-01-22 14:54:00,61.5,41.1,29.66,North,355,0.0,28.0,47,0.00,,---,0.00,459.00,VWS V15.00,2017-01-22 20:54:00,
2017-01-22 14:59:00,61.6,40.6,29.66,NW,304,13.0,22.0,46,0.00,,---,0.00,452.00,VWS V15.00,2017-01-22 20:59:00,
2017-01-22 15:04:00,61.4,41.0,29.66,NNW,330,2.0,14.0,47,0.00,,---,0.00,443.00,VWS V15.00,2017-01-22 21:04:00,
2017-01-22 15:09:00,61.2,40.8,29.66,NNW,334,16.0,27.0,47,0.00,,---,0.00,431.00,VWS V15.00,2017-01-22 21:09:00,
2017-01-22 15:14:00,61.4,39.9,29.67,NNW,342,22.0,23.0,45,0.00,,---,0.00,413.00,VWS V15.00,2017-01-22 21:14:00,
2017-01-22 15:19:00,61.7,39.6,29.67,NNE,32,0.0,19.0,44,0.00,,---,0.00,411.00,VWS V15.00,2017-01-22 21:19:00,
2017-01-22 15:24:00,62.0,39.9,29.67,NW,313,8.0,25.0,44,0.00,,---,0.00,396.00,VWS V15.00,2017-01-22 21:24:00,
2017-01-22 15:29:00,62.2,39.5,29.68,North,9,4.0,23.0,43,0.00,,---,0.00,385.00,VWS V15.00,2017-01-22 21:29:00,
2017-01-22 15:34:00,61.9,39.2,29.68,NNW,335,11.0,15.0,43,0.00,,---,0.00,371.00,VWS V15.00,2017-01-22 21:34:00,
2017-01-22 15:39:00,61.7,39.0,29.69,NNW,334,12.0,13.0,43,0.00,,---,0.00,359.00,VWS V15.00,2017-01-22 21:39:00,
2017-01-22 15:44:00,62.0,38.7,29.69,North,9,13.0,13.0,42,0.00,,---,0.00,348.00,VWS V15.00,2017-01-22 21:44:00,
2017-01-22 15:49:00,62.0,38.0,29.69,NW,321,6.0,23.0,41,0.00,,---,0.00,336.00,VWS V15.00,2017-01-22 21:49:00,
2017-01-22 15:54:00,62.0,38.0,29.70,NW,319,10.0,22.0,41,0.00,,---,0.00,322.00,VWS V15.00,2017-01-22 21:54:00,
2017-01-22 15:59:00,62.1,38.1,29.71,North,350,14.0,17.0,41,0.00,,---,0.00,308.00,VWS V15.00,2017-01-22 21:59:00,
2017-01-22 16:04:00,61.8,39.1,29.71,North,355,6.0,16.0,43,0.00,,---,0.00,295.00,VWS V15.00,2017-01-22 22:04:00,
2017-01-22 16:09:00,61.6,39.5,29.72,NW,319,2.0,12.0,44,0.00,,---,0.00,281.00,VWS V15.00,2017-01-22 22:09:00,
2017-01-22 16:14:00,61.4,39.9,29.72,NNW,329,9.0,14.0,45,0.00,,---,0.00,265.00,VWS V15.00,2017-01-22 22:14:00,
2017-01-22 16:19:00,61.3,39.2,29.72,NW,315,14.0,22.0,44,0.00,,---,0.00,253.00,VWS V15.00,2017-01-22 22:19:00,
2017-01-22 16:24:00,61.4,39.9,29.72,North,10,3.0,15.0,45,0.00,,---,0.00,237.00,VWS V15.00,2017-01-22 22:24:00,
2017-01-22 16:29:00,61.0,39.5,29.72,NNW,340,17.0,25.0,45,0.00,,---,0.00,223.00,VWS V15.00,2017-01-22 22:29:00,
2017-01-22 16:34:00,61.1,39.6,29.73,NNW,330,1.0,4.0,45,0.00,,---,0.00,209.00,VWS V15.00,2017-01-22 22:34:00,
2017-01-22 16:39:00,60.8,39.3,29.73,North,355,0.0,22.0,45,0.00,,---,0.00,195.00,VWS V15.00,2017-01-22 22:39:00,
2017-01-22 16:44:00,60.5,39.6,29.73,NW,318,6.0,10.0,46,0.00,,---,0.00,188.00,VWS V15.00,2017-01-22 22:44:00,
2017-01-22 16:49:00,60.5,39.6,29.73,NNW,339,0.0,13.0,46,0.00,,---,0.00,172.00,VWS V15.00,2017-01-22 22:49:00,
2017-01-22 16:54:00,60.6,39.2,29.74,NNW,333,1.0,8.0,45,0.00,,---,0.00,120.00,VWS V15.00,2017-01-22 22:54:00,
2017-01-22 16:59:00,60.6,39.2,29.74,NNW,339,2.0,15.0,45,0.00,,---,0.00,104.00,VWS V15.00,2017-01-22 22:59:00,
2017-01-22 17:04:00,60.5,39.6,29.74,NNW,343,0.0,13.0,46,0.00,,---,0.00,70.00,VWS V15.00,2017-01-22 23:04:00,
2017-01-22 17:09:00,60.3,40.0,29.75,NW,315,1.0,11.0,47,0.00,,---,0.00,32.00,VWS V15.00,2017-01-22 23:09:00,
2017-01-22 17:14:00,59.9,40.2,29.75,NNW,337,14.0,18.0,48,0.00,,---,0.00,28.00,VWS V15.00,2017-01-22 23:14:00,
2017-01-22 17:19:00,59.8,40.1,29.76,NW,325,0.0,8.0,48,0.00,,---,0.00,18.00,VWS V15.00,2017-01-22 23:19:00,
2017-01-22 17:24:00,59.5,39.8,29.76,North,5,3.0,12.0,48,0.00,,---,0.00,16.00,VWS V15.00,2017-01-22 23:24:00,
2017-01-22 17:29:00,59.3,39.6,29.76,NNE,24,0.0,16.0,48,0.00,,---,0.00,14.00,VWS V15.00,2017-01-22 23:29:00,
2017-01-22 17:34:00,59.1,39.5,29.77,North,11,0.0,11.0,48,0.00,,---,0.00,11.00,VWS V15.00,2017-01-22 23:34:00,
2017-01-22 17:39:00,58.8,39.7,29.77,NNW,336,2.0,5.0,49,0.00,,---,0.00,9.00,VWS V15.00,2017-01-22 23:39:00,
2017-01-22 17:44:00,58.7,39.1,29.77,NNW,343,5.0,12.0,48,0.00,,---,0.00,7.00,VWS V15.00,2017-01-22 23:44:00,
2017-01-22 17:49:00,58.6,39.0,29.78,North,355,2.0,16.0,48,0.00,,---,0.00,5.00,VWS V15.00,2017-01-22 23:49:00,
2017-01-22 17:54:00,58.6,39.0,29.78,NW,326,0.0,11.0,48,0.00,,---,0.00,0.00,VWS V15.00,2017-01-22 23:54:00,
2017-01-22 17:59:00,58.4,38.8,29.79,NNW,341,18.0,18.0,48,0.00,,---,0.00,0.00,VWS V15.00,2017-01-22 23:59:00,
2017-01-22 18:04:00,58.2,39.2,29.79,NNW,342,0.0,11.0,49,0.00,,---,0.00,0.00,VWS V15.00,2017-01-23 00:04:00,
2017-01-22 18:09:00,57.9,39.4,29.79,WNW,290,0.0,5.0,50,0.00,,---,0.00,0.00,VWS V15.00,2017-01-23 00:09:00,
2017-01-22 18:14:00,57.8,39.3,29.80,NNW,338,0.0,14.0,50,0.00,,---,0.00,0.00,VWS V15.00,2017-01-23 00:14:00,
2017-01-22 18:19:00,57.7,39.2,29.80,NNW,333,3.0,10.0,50,0.00,,---,0.00,0.00,VWS V15.00,2017-01-23 00:19:00,
2017-01-22 18:24:00,57.5,39.5,29.81,NW,314,8.0,11.0,51,0.00,,---,0.00,0.00,VWS V15.00,2017-01-23 00:24:00,
2017-01-22 18:29:00,57.4,39.4,29.81,NNW,343,6.0,15.0,51,0.00,,---,0.00,0.00,VWS V15.00,2017-01-23 00:29:00,
2017-01-22 18:34:00,57.3,39.3,29.81,NNW,331,3.0,12.0,51,0.00,,---,0.00,0.00,VWS V15.00,2017-01-23 00:34:00,
2017-01-22 18:39:00,57.2,39.2,29.81,NW,313,0.0,4.0,51,0.00,,---,0.00,0.00,VWS V15.00,2017-01-23 00:39:00,
2017-01-22 18:44:00,57.0,39.6,29.82,NNE,24,0.0,11.0,52,0.00,,---,0.00,0.00,VWS V15.00,2017-01-23 00:44:00,
2017-01-22 18:49:00,56.7,39.3,29.82,NNW,329,0.0,3.0,52,0.00,,---,0.00,0.00,VWS V15.00,2017-01-23 00:49:00,
2017-01-22 18:54:00,56.5,39.6,29.83,NNW,328,0.0,0.0,53,0.00,,---,0.00,0.00,VWS V15.00,2017-01-23 00:54:00,
2017-01-22 18:59:00,56.2,40.3,29.83,NNW,342,0.0,0.0,55,0.00,,---,0.00,0.00,VWS V15.00,2017-01-23 00:59:00,
2017-01-22 19:04:00,55.9,40.0,29.84,NNW,341,0.0,0.0,55,0.00,,---,0.00,0.00,VWS V15.00,2017-01-23 01:04:00,
2017-01-22 19:09:00,55.7,39.8,29.84,NNW,337,0.0,0.0,55,0.00,,---,0.00,0.00,VWS V15.00,2017-01-23 01:09:00,
2017-01-22 19:14:00,55.4,40.0,29.84,North,360,0.0,0.0,56,0.00,,---,0.00,0.00,VWS V15.00,2017-01-23 01:14:00,
2017-01-22 19:19:00,55.1,40.2,29.84,NNW,341,0.0,0.0,57,0.00,,---,0.00,0.00,VWS V15.00,2017-01-23 01:19:00,
2017-01-22 19:24:00,55.0,40.5,29.84,NNW,329,0.0,1.0,58,0.00,,---,0.00,0.00,VWS V15.00,2017-01-23 01:24:00,
2017-01-22 19:29:00,54.7,40.2,29.84,NNW,336,0.0,0.0,58,0.00,,---,0.00,0.00,VWS V15.00,2017-01-23 01:29:00,
2017-01-22 19:34:00,54.5,40.5,29.84,NW,307,0.0,0.0,59,0.00,,---,0.00,0.00,VWS V15.00,2017-01-23 01:34:00,
2017-01-22 19:39:00,54.3,41.2,29.84,NW,311,0.0,0.0,61,0.00,,---,0.00,0.00,VWS V15.00,2017-01-23 01:39:00,
2017-01-22 19:44:00,54.0,40.9,29.85,WNW,303,0.0,0.0,61,0.00,,---,0.00,0.00,VWS V15.00,2017-01-23 01:44:00,
2017-01-22 19:49:00,53.7,40.6,29.85,NNW,334,0.0,0.0,61,0.00,,---,0.00,0.00,VWS V15.00,2017-01-23 01:49:00,
2017-01-22 19:54:00,53.4,40.3,29.85,North,5,0.0,0.0,61,0.00,,---,0.00,0.00,VWS V15.00,2017-01-23 01:54:00,
2017-01-22 19:59:00,53.3,40.2,29.85,NNW,329,0.0,0.0,61,0.00,,---,0.00,0.00,VWS V15.00,2017-01-23 01:59:00,
2017-01-22 20:04:00,53.3,39.8,29.86,North,5,0.0,1.0,60,0.00,,---,0.00,0.00,VWS V15.00,2017-01-23 02:04:00,
2017-01-22 20:09:00,53.4,39.9,29.86,NW,313,0.0,0.0,60,0.00,,---,0.00,0.00,VWS V15.00,2017-01-23 02:09:00,
2017-01-22 20:14:00,53.4,39.5,29.86,North,355,0.0,0.0,59,0.00,,---,0.00,0.00,VWS V15.00,2017-01-23 02:14:00,
2017-01-22 20:19:00,53.4,39.0,29.86,North,355,0.0,0.0,58,0.00,,---,0.00,0.00,VWS V15.00,2017-01-23 02:19:00,
2017-01-22 20:24:00,53.3,39.3,29.86,NNW,348,0.0,0.0,59,0.00,,---,0.00,0.00,VWS V15.00,2017-01-23 02:24:00,
2017-01-22 20:29:00,53.1,39.2,29.87,NW,311,0.0,0.0,59,0.00,,---,0.00,0.00,VWS V15.00,2017-01-23 02:29:00,
2017-01-22 20:34:00,52.9,39.0,29.87,NW,316,0.0,0.0,59,0.00,,---,0.00,0.00,VWS V15.00,2017-01-23 02:34:00,
2017-01-22 20:39:00,52.7,38.3,29.87,NW,325,0.0,0.0,58,0.00,,---,0.00,0.00,VWS V15.00,2017-01-23 02:39:00,
2017-01-22 20:44:00,52.6,38.3,29.87,North,355,0.0,0.0,58,0.00,,---,0.00,0.00,VWS V15.00,2017-01-23 02:44:00,
2017-01-22 20:49:00,52.6,37.4,29.87,NW,313,0.0,4.0,56,0.00,,---,0.00,0.00,VWS V15.00,2017-01-23 02:49:00,
2017-01-22 20:54:00,52.7,37.5,29.87,North,360,0.0,0.0,56,0.00,,---,0.00,0.00,VWS V15.00,2017-01-23 02:54:00,
2017-01-22 20:59:00,52.6,37.8,29.87,NW,326,0.0,0.0,57,0.00,,---,0.00,0.00,VWS V15.00,2017-01-23 02:59:00,
2017-01-22 21:04:00,52.3,38.0,29.87,NNW,342,0.0,0.0,58,0.00,,---,0.00,0.00,VWS V15.00,2017-01-23 03:04:00,
2017-01-22 21:09:00,52.2,38.3,29.87,NNW,342,0.0,0.0,59,0.00,,---,0.00,0.00,VWS V15.00,2017-01-23 03:09:00,
2017-01-22 21:14:00,52.0,38.1,29.88,North,355,0.0,0.0,59,0.00,,---,0.00,0.00,VWS V15.00,2017-01-23 03:14:00,
2017-01-22 21:19:00,51.8,37.9,29.88,North,350,0.0,0.0,59,0.00,,---,0.00,0.00,VWS V15.00,2017-01-23 03:19:00,
2017-01-22 21:24:00,51.8,37.9,29.88,NNW,342,0.0,0.0,59,0.00,,---,0.00,0.00,VWS V15.00,2017-01-23 03:24:00,
2017-01-22 21:28:00,51.8,37.9,29.88,NNW,347,0.0,0.0,59,0.00,,---,0.00,0.00,VWS V15.00,2017-01-23 03:28:00,
2017-01-22 21:33:00,51.7,37.8,29.89,NNW,345,0.0,1.0,59,0.00,,---,0.00,0.00,VWS V15.00,2017-01-23 03:33:00,
2017-01-22 21:38:00,51.6,37.8,29.89,NNW,329,0.0,4.0,59,0.00,,---,0.00,0.00,VWS V15.00,2017-01-23 03:38:00,
2017-01-22 21:43:00,51.4,37.6,29.89,NNW,344,0.0,0.0,59,0.00,,---,0.00,0.00,VWS V15.00,2017-01-23 03:43:00,
2017-01-22 21:59:00,51.0,37.6,29.89,NW,323,0.0,0.0,60,0.00,,---,0.00,0.00,VWS V15.00,2017-01-23 03:59:00,